[[{"header":{"parameterUnit":"m.s-1","parameterCategory":1,"la1":30.2991,"la2":30.254,"lo1":-89.0895,"lo2":-89.0444,"dy":0.0017,"dx":0.0017,"nx":28,"ny":28,"refTime":"2023-07-26T09:00:00:Z","depth":0,"parameterNumber":2,"parameterNumberName":"U-component_of_WINDS"},"data":[0,0,0,0,0,0,0,0,0,0,0,0,0,0,0,0,0,0,0,0,0,0,0,0,0,0,0,0,0,0,0,0,0,0,0,0,0,0,0,0,0,0,0,0,0,0,0,0,0,0,0,0,0,0,0,0,0,0,1.7047,1.7047,0,1.7017,1.7017,1.7017,1.6913,1.691,1.6908,1.6906,1.6878,1.6879,1.6881,0,0,0,0,0,0,0,0,0,0,0,0,0,1.7016,1.7017,1.7047,1.7047,1.7046,1.7018,1.7017,1.7017,1.6913,1.691,1.6907,1.6904,1.6878,1.6879,1.6881,0,0,0,0,0,0,0,0,0,0,0,0,0,1.7012,1.7017,1.7047,1.6991,1.6986,1.7018,1.7017,1.7017,1.6914,1.691,1.6906,1.6903,1.6877,1.6879,1.6881,1.6966,0,0,1.6888,1.6889,0,0,0,0,0,0,0,0,1.7012,1.7013,1.7,1.6995,1.6989,1.6965,1.6996,1.7,1.6914,1.6941,1.6905,1.6901,1.691,1.6909,1.6912,1.6965,1.6964,1.6888,1.689,1.6891,1.6891,0,0,0,0,0,0,0,1.7013,1.7014,1.7035,1.6999,1.6993,1.6968,1.6964,1.6996,1.6946,1.6938,1.6931,1.6929,1.6906,1.691,1.691,1.6963,1.6888,1.689,1.6892,1.6892,1.7083,1.7087,0,0,0,0,0,0,1.7021,1.7015,1.7036,1.7034,1.6992,1.6971,1.6966,1.6976,1.6945,1.6937,1.6932,1.6924,1.6908,1.6908,1.6909,1.7005,1.6891,1.6893,1.6894,1.708,1.7084,1.7088,0,0,0,0,0,0,1.702,1.7024,1.7037,1.7023,1.7022,1.6976,1.6988,1.6978,1.6981,1.694,1.6931,1.6944,1.6905,1.6906,1.6952,1.7002,1.6894,1.6896,1.7075,1.7081,1.7086,1.7198,0,0,0,0,0,0,1.702,1.7024,1.7055,1.7024,1.7024,1.7081,1.6991,1.698,1.6984,1.6974,1.6949,1.6942,1.6902,1.6949,1.6954,1.7003,1.6897,1.707,1.7078,1.7084,1.719,1.7207,1.7222,0,0,0,0,0,1.7019,1.7089,1.7057,1.7061,1.7061,1.7084,1.7084,1.7036,1.6989,1.702,1.6994,1.6943,1.6997,1.6955,1.696,1.701,1.7067,1.7076,1.7084,1.7183,1.7204,1.7221,0,0,0,0,0,0,1.7128,1.7084,1.7048,1.711,1.7101,1.7066,1.7104,1.706,1.7065,1.7055,1.6997,1.6992,1.7047,1.7033,1.6988,1.709,1.7023,1.7033,1.7097,1.7116,1.7132,1.7133,1.6899,0,0,0,0,0,1.7159,1.718,1.7141,1.7199,1.7196,1.7151,1.7159,1.7123,1.7112,1.7109,1.7086,1.7078,1.7093,1.7104,1.7116,1.7188,1.7181,1.7225,1.7241,1.7254,1.7263,1.7299,1.7318,1.7116,1.7116,1.7116,0,0,1.7224,1.7202,1.7219,1.722,1.7209,1.7233,1.7149,1.7178,1.7195,1.7113,1.7155,1.7138,1.7126,1.7185,1.721,1.7176,1.7317,1.7265,1.7276,1.7277,1.731,1.7329,1.7346,1.7122,1.7121,1.712,0,0,1.7353,1.7339,1.7385,1.7376,1.736,1.733,1.7341,1.7313,1.7298,1.7339,1.7278,1.7298,1.7326,1.7319,1.7319,1.7446,1.7399,1.7452,1.7534,1.757,1.7586,1.76,1.7644,1.7661,1.7461,1.7461,1.7461,0,1.7435,1.7467,1.7415,1.7447,1.7449,1.7376,1.7422,1.7416,1.7406,1.7409,1.7371,1.7403,1.7389,1.7445,1.7476,1.748,1.749,1.7453,1.7588,1.7601,1.7613,1.7655,1.7672,1.7468,1.7467,1.7466,1.7466,0,1.7569,1.7592,1.7631,1.7621,1.7628,1.7668,1.7622,1.7635,1.7599,1.7573,1.7616,1.7597,1.7603,1.7614,1.758,1.7666,1.7644,1.7598,1.7529,1.764,1.7678,1.7693,1.7477,1.7474,1.7473,1.7471,0,0,1.7764,1.7725,1.774,1.7734,1.7712,1.7729,1.7766,1.777,1.7783,1.7779,1.7807,1.7832,1.7789,1.7789,1.7754,1.7785,1.7886,1.7735,1.7733,1.7762,1.7978,1.8012,1.8031,1.7855,1.7858,1.786,1.7978,0,1.7886,1.7944,1.7898,1.7964,1.7985,1.7916,1.7948,1.7938,1.7915,1.793,1.7905,1.7922,1.7865,1.7864,1.7893,1.7868,1.7928,1.7859,1.7881,1.7882,1.7884,1.8051,1.8086,1.8199,1.7993,1.7996,1.7997,0,1.8034,1.8035,1.8104,1.8076,1.8083,1.8112,1.8112,1.8127,1.8115,1.8096,1.8097,1.8053,1.8087,1.8021,1.8067,1.8021,1.8027,1.8017,1.802,1.8019,1.7945,1.8053,1.8234,1.825,1.802,1.8019,1.8017,0,1.8168,1.8187,1.823,1.8227,1.8197,1.8218,1.8207,1.8191,1.8196,1.8198,1.8201,1.8207,1.821,1.8216,1.8174,1.813,1.8226,1.8157,1.8211,1.8212,1.8232,1.8231,1.8416,1.824,1.824,1.824,1.8239,0,1.8307,1.8352,1.8289,1.8315,1.8363,1.831,1.8359,1.8341,1.8327,1.8349,1.8291,1.8313,1.8258,1.8275,1.8243,1.8286,1.8288,1.8274,1.8264,1.8278,1.8279,1.828,1.827,1.8244,1.8243,1.8242,1.8241,0,1.8464,1.8424,1.8466,1.8433,1.8426,1.8462,1.8435,1.8458,1.8431,1.846,1.8464,1.8422,1.8439,1.8398,1.841,1.8388,1.8449,1.8428,1.8452,1.8445,1.8501,1.8496,1.8691,1.8713,1.8525,1.8527,1.8529,0,1.8554,1.8586,1.8557,1.8566,1.8558,1.8575,1.858,1.853,1.8538,1.8526,1.8551,1.8562,1.8568,1.8598,1.857,1.8578,1.8556,1.8624,1.8557,1.8569,1.8555,1.8553,1.8555,1.8637,1.8639,1.8641,1.8643,0,1.8718,1.8697,1.8706,1.8708,1.8716,1.8716,1.8711,1.8723,1.867,1.8682,1.8697,1.8702,1.8713,1.8725,1.8727,1.8716,1.8671,1.8664,1.8677,1.869,1.8702,1.8694,1.8488,1.866,1.8658,1.8657,1.8656,1.8655,1.8843,1.8868,1.885,1.8862,1.8854,1.8851,1.8871,1.8847,1.8858,1.8862,1.8832,1.8854,1.8841,1.8838,1.8832,1.8849,1.8818,1.8837,1.8841,1.8846,1.8854,1.8701,1.8849,1.8849,1.8848,1.8848,1.8847,0,1.9002,1.8988,1.8999,1.8994,1.9004,1.896,1.8954,1.8965,1.8984,1.8975,1.8982,1.9,1.9011,1.8984,1.8991,1.901,1.899,1.9014,1.9011,1.9009,1.8882,1.887,1.903,1.903,1.903,1.903,1.903,1.903,1.9086,1.9125,1.9102,1.9137,1.9122,1.9141,1.9141,1.9139,1.9131,1.9153,1.9161,1.9143,1.9127,1.9133,1.9141,1.9133,1.9138,1.9169,1.9153,1.9036,1.9018,1.9001,1.8988,1.9171,1.9171,1.9278,1.9279,1.9279]},{"header":{"parameterUnit":"m.s-1","parameterCategory":1,"la1":30.2991,"la2":30.254,"lo1":-89.0895,"lo2":-89.0444,"dy":0.0017,"dx":0.0017,"nx":28,"ny":28,"refTime":"2023-07-26T09:00:00:Z","depth":0,"parameterNumber":3,"parameterNumberName":"V-component_of_WINDS"},"data":[0,0,0,0,0,0,0,0,0,0,0,0,0,0,0,0,0,0,0,0,0,0,0,0,0,0,0,0,0,0,0,0,0,0,0,0,0,0,0,0,0,0,0,0,0,0,0,0,0,0,0,0,0,0,0,0,0,0,-1.0424,-1.0423,0,-1.0334,-1.0333,-1.0332,-1.0296,-1.0296,-1.0296,-1.0296,-1.0201,-1.0199,-1.0196,0,0,0,0,0,0,0,0,0,0,0,0,0,-1.0564,-1.0561,-1.0424,-1.0423,-1.0422,-1.0334,-1.0333,-1.0332,-1.0296,-1.0296,-1.0296,-1.0296,-1.0202,-1.0199,-1.0196,0,0,0,0,0,0,0,0,0,0,0,0,0,-1.0491,-1.0561,-1.0424,-1.0393,-1.039,-1.0334,-1.0333,-1.0331,-1.0296,-1.0296,-1.0296,-1.0297,-1.0203,-1.0199,-1.0195,-1.0163,0,0,-1.0183,-1.0181,0,0,0,0,0,0,0,0,-1.0495,-1.0486,-1.0399,-1.0395,-1.0391,-1.0326,-1.0347,-1.0275,-1.0296,-1.0331,-1.0296,-1.0297,-1.0243,-1.0235,-1.0218,-1.0159,-1.0155,-1.0183,-1.018,-1.0178,-1.0177,0,0,0,0,0,0,0,-1.05,-1.049,-1.0388,-1.0398,-1.0393,-1.0384,-1.0374,-1.0333,-1.0286,-1.0328,-1.0325,-1.0315,-1.0241,-1.0222,-1.0215,-1.0153,-1.0183,-1.0179,-1.0176,-1.0175,-1.0065,-1.0064,0,0,0,0,0,0,-1.0511,-1.0494,-1.0391,-1.0386,-1.0445,-1.0381,-1.037,-1.0347,-1.0286,-1.0278,-1.0315,-1.0314,-1.0228,-1.022,-1.0212,-1.017,-1.0178,-1.0174,-1.0172,-1.0065,-1.0065,-1.0064,0,0,0,0,0,0,-1.0514,-1.0502,-1.0395,-1.0439,-1.0425,-1.0378,-1.0353,-1.0345,-1.0326,-1.0277,-1.0268,-1.0305,-1.0228,-1.0217,-1.0176,-1.0167,-1.0173,-1.0169,-1.0066,-1.0065,-1.0065,-1.0088,0,0,0,0,0,0,-1.0518,-1.0503,-1.0491,-1.0439,-1.0423,-1.0361,-1.0352,-1.0343,-1.0319,-1.0317,-1.0264,-1.0256,-1.0228,-1.0182,-1.0172,-1.0161,-1.0166,-1.0066,-1.0066,-1.0065,-1.0087,-1.0088,-1.0088,0,0,0,0,0,-1.0523,-1.05,-1.049,-1.0478,-1.0406,-1.036,-1.0351,-1.032,-1.0319,-1.0305,-1.0274,-1.0258,-1.017,-1.0178,-1.0166,-1.0154,-1.0067,-1.0066,-1.0065,-1.0087,-1.0088,-1.0088,0,0,0,0,0,0,-1.055,-1.0493,-1.0481,-1.0441,-1.0406,-1.0355,-1.0337,-1.0321,-1.0285,-1.0284,-1.0247,-1.0235,-1.0197,-1.0171,-1.0182,-1.012,-1.0117,-1.0114,-1.0138,-1.0138,-1.0139,-1.0145,-1.0162,0,0,0,0,0,-1.0552,-1.052,-1.0471,-1.044,-1.0424,-1.0384,-1.0362,-1.0342,-1.0304,-1.0289,-1.0254,-1.0218,-1.0182,-1.0159,-1.0123,-1.0084,-1.0072,-1.007,-1.007,-1.0071,-1.0068,-1.0046,-1.0045,-1.0061,-1.0061,-1.0061,0,0,-1.0554,-1.0518,-1.05,-1.0445,-1.0415,-1.0383,-1.0371,-1.0337,-1.0313,-1.0283,-1.0242,-1.0216,-1.0173,-1.0133,-1.0113,-1.011,-1.0061,-1.007,-1.007,-1.0067,-1.0045,-1.0044,-1.0042,-1.006,-1.006,-1.006,0,0,-1.0541,-1.0511,-1.0482,-1.0454,-1.041,-1.0384,-1.0378,-1.0329,-1.0311,-1.0269,-1.0247,-1.0217,-1.0156,-1.0127,-1.0104,-1.0083,-1.0066,-1.0072,-1.0073,-1.0053,-1.0051,-1.005,-1.0043,-1.004,-1.007,-1.007,-1.007,0,-1.0548,-1.05,-1.0469,-1.0437,-1.0414,-1.0387,-1.0358,-1.0331,-1.0278,-1.0262,-1.026,-1.0184,-1.0153,-1.0106,-1.0101,-1.0083,-1.0074,-1.0077,-1.0054,-1.0053,-1.0051,-1.0043,-1.0041,-1.0071,-1.0071,-1.0071,-1.007,0,-1.0512,-1.0478,-1.046,-1.0411,-1.0386,-1.0355,-1.032,-1.0297,-1.028,-1.0254,-1.0213,-1.0175,-1.0132,-1.012,-1.0101,-1.0071,-1.007,-1.0062,-1.0057,-1.0051,-1.0043,-1.004,-1.0072,-1.0072,-1.0072,-1.0071,0,0,-1.0511,-1.0447,-1.0441,-1.0419,-1.037,-1.0343,-1.0312,-1.0271,-1.0253,-1.0218,-1.019,-1.0141,-1.0133,-1.0107,-1.0086,-1.0068,-1.0054,-1.0062,-1.006,-1.0061,-1.0019,-1.0025,-1.0022,-1.0044,-1.0043,-1.0043,-1.0022,0,-1.0491,-1.0435,-1.0407,-1.0362,-1.0332,-1.0307,-1.028,-1.0247,-1.0223,-1.0193,-1.0166,-1.0132,-1.0124,-1.0109,-1.009,-1.006,-1.0045,-1.0061,-1.0018,-1.0016,-1.0028,-1.0018,-1.0023,-1.0006,-1.0019,-1.0018,-1.0018,0,-1.046,-1.0427,-1.0379,-1.0336,-1.0322,-1.0298,-1.0259,-1.0231,-1.0193,-1.0177,-1.015,-1.0129,-1.0095,-1.0095,-1.0048,-1.006,-1.0041,-1.0024,-1.0022,-1.0016,-1.0016,-1.0011,-0.9999,-0.9997,-1.0013,-1.0013,-1.0014,0,-1.0464,-1.0407,-1.0372,-1.0354,-1.0302,-1.0286,-1.0263,-1.0227,-1.0204,-1.017,-1.0155,-1.0118,-1.0097,-1.0068,-1.0038,-1.0041,-0.9995,-0.9991,-0.998,-0.998,-0.997,-0.9971,-0.9955,-0.9959,-0.9959,-0.9959,-0.9959,0,-1.0444,-1.0416,-1.0373,-1.0351,-1.0319,-1.0289,-1.0258,-1.0234,-1.0202,-1.0174,-1.0151,-1.0126,-1.0089,-1.0059,-1.0036,-1.0001,-0.9992,-0.9977,-0.9971,-0.9979,-0.9981,-0.9965,-0.9965,-0.9958,-0.9959,-0.9959,-0.9959,0,-1.0443,-1.0413,-1.0373,-1.0328,-1.0316,-1.0295,-1.0256,-1.0234,-1.021,-1.0176,-1.0166,-1.0127,-1.0092,-1.006,-1.0012,-0.9996,-0.996,-0.9953,-0.9973,-0.997,-0.996,-0.9961,-0.9932,-0.9927,-0.9936,-0.9936,-0.9936,0,-1.0431,-1.041,-1.0363,-1.0344,-1.0323,-1.0292,-1.0269,-1.0239,-1.0217,-1.0174,-1.0157,-1.012,-1.0088,-1.0032,-1.0,-0.9964,-0.9955,-0.9947,-0.9949,-0.9958,-0.9954,-0.9956,-0.9953,-0.9947,-0.9947,-0.9947,-0.9947,0,-1.0415,-1.0402,-1.0371,-1.0335,-1.031,-1.028,-1.0249,-1.0235,-1.0199,-1.0175,-1.0139,-1.0115,-1.0067,-1.0031,-0.9991,-0.9968,-0.9951,-0.9948,-0.9943,-0.995,-0.9962,-0.9955,-0.9973,-0.9948,-0.9948,-0.9948,-0.9948,-0.9948,-1.0407,-1.0387,-1.0352,-1.0319,-1.0293,-1.0266,-1.0243,-1.0217,-1.0187,-1.0146,-1.013,-1.0094,-1.0058,-1.0004,-0.9981,-0.9952,-0.9949,-0.9942,-0.994,-0.9939,-0.994,-0.9968,-0.9945,-0.9945,-0.9945,-0.9945,-0.9944,0,-1.0389,-1.0366,-1.0336,-1.0295,-1.0269,-1.0258,-1.0225,-1.0203,-1.0172,-1.0141,-1.0111,-1.007,-1.0035,-1.0001,-0.9964,-0.9948,-0.9939,-0.9939,-0.9939,-0.9934,-0.9945,-0.9953,-0.9946,-0.9946,-0.9946,-0.9946,-0.9946,-0.9946,-1.0377,-1.0343,-1.0326,-1.0279,-1.0256,-1.022,-1.0202,-1.0177,-1.0152,-1.0108,-1.0079,-1.0058,-1.0026,-0.9987,-0.9955,-0.9945,-0.9933,-0.9934,-0.9923,-0.9933,-0.9933,-0.9934,-0.9941,-0.9932,-0.9932,-0.9915,-0.9915,-0.9915]}]]